Location: Lourdes
(43.1000°N, 0.0500°W)
Time: 09:27:51
(UTC+00:00)

Meteor 1-11 Rocket - Pass Details

Date: 30 November 2020
Orbit: 831 x 915 km, 81.2° (Epoch: 25 January)

Event Time Altitude Azimuth Distance (km) Brightness Sun altitude
Rises 19:22:23 0° 345° (NNW) 3,475 7.1 -31.5°
Reaches altitude 10° 19:24:50 10° 341° (NNW) 2,545 6.3 -31.9°
Maximum altitude 19:30:29 56° 265° (W) 1,060 4.3 -32.9°
Enters shadow 19:31:42 47° 224° (SW) 1,173 4.5 -33.2°
Exits shadow 19:36:15 10° 189° (S) 2,593 6.3 -34.0°
Sets 19:38:43 0° 185° (S) 3,522 7.0 -34.5°
